Location: Passau
(48.5830°N, 13.4830°E)
Time: 01:37:15
(UTC+02:00)

ISS - Visible Passes

Search period start: 22 October 2019 00:00
Search period end: 31 October 2019 23:00
Orbit: 411 x 421 km, 51.6° (Epoch: 21 October)

Date Brightness Start Highest point End Pass type
(mag) Time Alt. Az. Time Alt. Az. Time Alt. Az.
24 Oct -1.0 06:49:47 10° S 06:52:14 19° SE 06:54:42 10° E visible
25 Oct -0.7 06:02:25 10° SSE 06:03:51 12° SE 06:05:18 10° ESE visible
26 Oct -2.5 06:48:19 10° SW 06:51:29 40° SSE 06:54:41 10° ENE visible
27 Oct -1.8 05:00:46 14° SSW 05:02:59 27° SE 05:05:53 10° E visible
28 Oct -1.3 04:14:38 18° SE 04:14:38 18° SE 04:16:52 10° E visible
28 Oct -3.7 05:47:33 10° WSW 05:50:52 81° SSE 05:54:14 10° ENE visible
29 Oct -3.3 05:01:14 37° SSW 05:02:15 56° SSE 05:05:34 10° ENE visible
30 Oct -1.7 04:14:49 28° ESE 04:14:49 28° ESE 04:16:49 10° ENE visible
30 Oct -3.6 05:47:44 16° W 05:50:20 63° NNW 05:53:40 10° ENE visible
31 Oct -3.9 05:01:13 65° W 05:01:37 80° NNW 05:05:00 10° ENE visible
